Data supplied by UK-AIR on 5/4/2008
All Data GMT hour ending 
Status: R =Ratified P=Provisional,P*=As supplied
,,London Sutton,,,,,,,,,,,,,,,,,,,,,,,
Date,time,"Nitric oxide",status,unit,"Nitrogen dioxide",status,unit,"Nitrogen oxides as nitrogen dioxide",status,unit,"Ozone",status,unit
 
01-01-1999,01:00,4,R,ugm-3,19,R,ugm-3,25,R,ugm-3,40,R,ugm-3
01-01-1999,02:00,4,R,ugm-3,21,R,ugm-3,27,R,ugm-3,40,R,ugm-3
01-01-1999,03:00,3,R,ugm-3,19,R,ugm-3,23,R,ugm-3,40,R,ugm-3
01-01-1999,04:00,3,R,ugm-3,15,R,ugm-3,19,R,ugm-3,42,R,ugm-3
01-01-1999,05:00,3,R,ugm-3,13,R,ugm-3,17,R,ugm-3,46,R,ugm-3
01-01-1999,06:00,3,R,ugm-3,11,R,ugm-3,15,R,ugm-3,48,R,ugm-3
01-01-1999,07:00,6,R,ugm-3,21,R,ugm-3,31,R,ugm-3,42,R,ugm-3
01-01-1999,08:00,4,R,ugm-3,17,R,ugm-3,23,R,ugm-3,50,R,ugm-3
01-01-1999,09:00,8,R,ugm-3,19,R,ugm-3,31,R,ugm-3,48,R,ugm-3
01-01-1999,10:00,5,R,ugm-3,21,R,ugm-3,29,R,ugm-3,40,R,ugm-3
01-01-1999,11:00,8,R,ugm-3,23,R,ugm-3,34,R,ugm-3,42,R,ugm-3
01-01-1999,12:00,10,R,ugm-3,23,R,ugm-3,38,R,ugm-3,46,R,ugm-3
01-01-1999,13:00,10,R,ugm-3,21,R,ugm-3,36,R,ugm-3,52,R,ugm-3
01-01-1999,14:00,9,R,ugm-3,21,R,ugm-3,34,R,ugm-3,52,R,ugm-3
01-01-1999,15:00,11,R,ugm-3,25,R,ugm-3,42,R,ugm-3,46,R,ugm-3
01-01-1999,16:00,11,R,ugm-3,34,R,ugm-3,52,R,ugm-3,38,R,ugm-3
01-01-1999,17:00,9,R,ugm-3,34,R,ugm-3,48,R,ugm-3,38,R,ugm-3
01-01-1999,18:00,10,R,ugm-3,36,R,ugm-3,52,R,ugm-3,34,R,ugm-3
01-01-1999,19:00,9,R,ugm-3,34,R,ugm-3,48,R,ugm-3,36,R,ugm-3
01-01-1999,20:00,9,R,ugm-3,32,R,ugm-3,46,R,ugm-3,40,R,ugm-3
01-01-1999,21:00,8,R,ugm-3,23,R,ugm-3,34,R,ugm-3,48,R,ugm-3
01-01-1999,22:00,4,R,ugm-3,15,R,ugm-3,21,R,ugm-3,56,R,ugm-3
01-01-1999,23:00,3,R,ugm-3,13,R,ugm-3,17,R,ugm-3,60,R,ugm-3
01-01-1999,24:00,1,R,ugm-3,6,R,ugm-3,8,R,ugm-3,68,R,ugm-3
02-01-1999,01:00,1,R,ugm-3,4,R,ugm-3,6,R,ugm-3,72,R,ugm-3
02-01-1999,02:00,1,R,ugm-3,2,R,ugm-3,4,R,ugm-3,74,R,ugm-3
02-01-1999,03:00,4,R,ugm-3,4,R,ugm-3,10,R,ugm-3,74,R,ugm-3
02-01-1999,04:00,1,R,ugm-3,2,R,ugm-3,4,R,ugm-3,76,R,ugm-3
02-01-1999,05:00,3,R,ugm-3,2,R,ugm-3,6,R,ugm-3,74,R,ugm-3
02-01-1999,06:00,3,R,ugm-3,4,R,ugm-3,8,R,ugm-3,72,R,ugm-3
02-01-1999,07:00,3,R,ugm-3,8,R,ugm-3,11,R,ugm-3,76,R,ugm-3
02-01-1999,08:00,6,R,ugm-3,19,R,ugm-3,29,R,ugm-3,66,R,ugm-3
02-01-1999,09:00,10,R,ugm-3,31,R,ugm-3,46,R,ugm-3,50,R,ugm-3
02-01-1999,10:00,9,R,ugm-3,25,R,ugm-3,38,R,ugm-3,54,R,ugm-3
02-01-1999,11:00,6,R,ugm-3,19,R,ugm-3,29,R,ugm-3,56,R,ugm-3
02-01-1999,12:00,8,R,ugm-3,19,R,ugm-3,31,R,ugm-3,60,R,ugm-3
02-01-1999,13:00,8,R,ugm-3,17,R,ugm-3,29,R,ugm-3,62,R,ugm-3
02-01-1999,14:00,8,R,ugm-3,15,R,ugm-3,27,R,ugm-3,72,R,ugm-3
02-01-1999,15:00,9,R,ugm-3,21,R,ugm-3,34,R,ugm-3,66,R,ugm-3
02-01-1999,16:00,13,R,ugm-3,36,R,ugm-3,55,R,ugm-3,48,R,ugm-3
02-01-1999,17:00,10,R,ugm-3,29,R,ugm-3,44,R,ugm-3,52,R,ugm-3
02-01-1999,18:00,14,R,ugm-3,40,R,ugm-3,61,R,ugm-3,40,R,ugm-3
02-01-1999,19:00,15,R,ugm-3,46,R,ugm-3,69,R,ugm-3,32,R,ugm-3
02-01-1999,20:00,10,R,ugm-3,36,R,ugm-3,52,R,ugm-3,40,R,ugm-3
02-01-1999,21:00,6,R,ugm-3,29,R,ugm-3,38,R,ugm-3,46,R,ugm-3
02-01-1999,22:00,4,R,ugm-3,32,R,ugm-3,38,R,ugm-3,46,R,ugm-3
02-01-1999,23:00,1,R,ugm-3,15,R,ugm-3,17,R,ugm-3,68,R,ugm-3
02-01-1999,24:00,1,R,ugm-3,13,R,ugm-3,15,R,ugm-3,70,R,ugm-3
03-01-1999,01:00,1,R,ugm-3,11,R,ugm-3,13,R,ugm-3,64,R,ugm-3
03-01-1999,02:00,1,R,ugm-3,10,R,ugm-3,11,R,ugm-3,68,R,ugm-3
03-01-1999,03:00,5,R,ugm-3,13,R,ugm-3,21,R,ugm-3,62,R,ugm-3
03-01-1999,04:00,6,R,ugm-3,13,R,ugm-3,23,R,ugm-3,60,R,ugm-3
03-01-1999,05:00,3,R,ugm-3,10,R,ugm-3,13,R,ugm-3,66,R,ugm-3
03-01-1999,06:00,1,R,ugm-3,10,R,ugm-3,11,R,ugm-3,72,R,ugm-3
03-01-1999,07:00,3,R,ugm-3,8,R,ugm-3,11,R,ugm-3,74,R,ugm-3
03-01-1999,08:00,3,R,ugm-3,10,R,ugm-3,13,R,ugm-3,72,R,ugm-3
03-01-1999,09:00,3,R,ugm-3,8,R,ugm-3,11,R,ugm-3,80,R,ugm-3
03-01-1999,10:00,1,R,ugm-3,10,R,ugm-3,11,R,ugm-3,78,R,ugm-3
03-01-1999,11:00,4,R,ugm-3,13,R,ugm-3,19,R,ugm-3,72,R,ugm-3
03-01-1999,12:00,3,R,ugm-3,15,R,ugm-3,19,R,ugm-3,66,R,ugm-3
03-01-1999,13:00,4,R,ugm-3,15,R,ugm-3,21,R,ugm-3,62,R,ugm-3
03-01-1999,14:00,4,R,ugm-3,21,R,ugm-3,27,R,ugm-3,60,R,ugm-3
03-01-1999,15:00,5,R,ugm-3,27,R,ugm-3,34,R,ugm-3,56,R,ugm-3
03-01-1999,16:00,10,R,ugm-3,40,R,ugm-3,55,R,ugm-3,38,R,ugm-3
03-01-1999,17:00,18,R,ugm-3,59,R,ugm-3,86,R,ugm-3,20,R,ugm-3
03-01-1999,18:00,9,R,ugm-3,38,R,ugm-3,52,R,ugm-3,40,R,ugm-3
03-01-1999,19:00,14,R,ugm-3,48,R,ugm-3,69,R,ugm-3,32,R,ugm-3
03-01-1999,20:00,13,R,ugm-3,42,R,ugm-3,61,R,ugm-3,34,R,ugm-3
03-01-1999,21:00,9,R,ugm-3,46,R,ugm-3,59,R,ugm-3,22,R,ugm-3
03-01-1999,22:00,6,R,ugm-3,44,R,ugm-3,53,R,ugm-3,28,R,ugm-3
03-01-1999,23:00,3,R,ugm-3,11,R,ugm-3,15,R,ugm-3,70,R,ugm-3
03-01-1999,24:00,1,R,ugm-3,6,R,ugm-3,8,R,ugm-3,72,R,ugm-3
04-01-1999,01:00,1,R,ugm-3,4,R,ugm-3,6,R,ugm-3,70,R,ugm-3
04-01-1999,02:00,0,R,ugm-3,4,R,ugm-3,4,R,ugm-3,64,R,ugm-3
04-01-1999,03:00,1,R,ugm-3,2,R,ugm-3,4,R,ugm-3,62,R,ugm-3
04-01-1999,04:00,1,R,ugm-3,2,R,ugm-3,4,R,ugm-3,62,R,ugm-3
04-01-1999,05:00,0,R,ugm-3,4,R,ugm-3,4,R,ugm-3,58,R,ugm-3
04-01-1999,06:00,1,R,ugm-3,4,R,ugm-3,6,R,ugm-3,56,R,ugm-3
04-01-1999,07:00,4,R,ugm-3,11,R,ugm-3,17,R,ugm-3,54,R,ugm-3
04-01-1999,08:00,5,R,ugm-3,17,R,ugm-3,25,R,ugm-3,50,R,ugm-3
04-01-1999,09:00,5,R,ugm-3,17,R,ugm-3,25,R,ugm-3,52,R,ugm-3
04-01-1999,10:00,6,R,ugm-3,17,R,ugm-3,27,R,ugm-3,52,R,ugm-3
04-01-1999,11:00,8,R,ugm-3,19,R,ugm-3,31,R,ugm-3,46,R,ugm-3
04-01-1999,12:00,6,R,ugm-3,17,R,ugm-3,27,R,ugm-3,54,R,ugm-3
04-01-1999,13:00,8,R,ugm-3,19,R,ugm-3,31,R,ugm-3,54,R,ugm-3
04-01-1999,14:00,8,R,ugm-3,21,R,ugm-3,32,R,ugm-3,54,R,ugm-3
04-01-1999,15:00,9,R,ugm-3,25,R,ugm-3,38,R,ugm-3,46,R,ugm-3
04-01-1999,16:00,9,R,ugm-3,29,R,ugm-3,42,R,ugm-3,50,R,ugm-3
04-01-1999,17:00,14,R,ugm-3,44,R,ugm-3,65,R,ugm-3,34,R,ugm-3
04-01-1999,18:00,18,R,ugm-3,50,R,ugm-3,76,R,ugm-3,26,R,ugm-3
04-01-1999,19:00,21,R,ugm-3,53,R,ugm-3,86,R,ugm-3,12,R,ugm-3
04-01-1999,20:00,13,R,ugm-3,42,R,ugm-3,61,R,ugm-3,28,R,ugm-3
04-01-1999,21:00,9,R,ugm-3,36,R,ugm-3,50,R,ugm-3,38,R,ugm-3
04-01-1999,22:00,6,R,ugm-3,29,R,ugm-3,38,R,ugm-3,42,R,ugm-3
04-01-1999,23:00,3,R,ugm-3,19,R,ugm-3,23,R,ugm-3,54,R,ugm-3
04-01-1999,24:00,3,R,ugm-3,11,R,ugm-3,15,R,ugm-3,56,R,ugm-3
05-01-1999,01:00,1,R,ugm-3,6,R,ugm-3,8,R,ugm-3,56,R,ugm-3
05-01-1999,02:00,1,R,ugm-3,2,R,ugm-3,4,R,ugm-3,60,R,ugm-3
05-01-1999,03:00,1,R,ugm-3,2,R,ugm-3,4,R,ugm-3,60,R,ugm-3
05-01-1999,04:00,1,R,ugm-3,2,R,ugm-3,4,R,ugm-3,64,R,ugm-3
05-01-1999,05:00,3,R,ugm-3,6,R,ugm-3,10,R,ugm-3,62,R,ugm-3
05-01-1999,06:00,6,R,ugm-3,11,R,ugm-3,21,R,ugm-3,58,R,ugm-3
05-01-1999,07:00,9,R,ugm-3,19,R,ugm-3,32,R,ugm-3,48,R,ugm-3
05-01-1999,08:00,14,R,ugm-3,32,R,ugm-3,53,R,ugm-3,34,R,ugm-3
05-01-1999,09:00,19,R,ugm-3,38,R,ugm-3,67,R,ugm-3,28,R,ugm-3
05-01-1999,10:00,16,R,ugm-3,36,R,ugm-3,61,R,ugm-3,28,R,ugm-3
05-01-1999,11:00,13,R,ugm-3,31,R,ugm-3,50,R,ugm-3,30,R,ugm-3
05-01-1999,12:00,15,R,ugm-3,31,R,ugm-3,53,R,ugm-3,28,R,ugm-3
05-01-1999,13:00,14,R,ugm-3,29,R,ugm-3,50,R,ugm-3,34,R,ugm-3
05-01-1999,14:00,13,R,ugm-3,29,R,ugm-3,48,R,ugm-3,36,R,ugm-3
05-01-1999,15:00,14,R,ugm-3,32,R,ugm-3,53,R,ugm-3,34,R,ugm-3
05-01-1999,16:00,15,R,ugm-3,38,R,ugm-3,61,R,ugm-3,26,R,ugm-3
05-01-1999,17:00,14,R,ugm-3,44,R,ugm-3,65,R,ugm-3,20,R,ugm-3
05-01-1999,18:00,18,R,ugm-3,48,R,ugm-3,74,R,ugm-3,16,R,ugm-3
05-01-1999,19:00,13,R,ugm-3,40,R,ugm-3,59,R,ugm-3,22,R,ugm-3
05-01-1999,20:00,16,R,ugm-3,38,R,ugm-3,63,R,ugm-3,16,R,ugm-3
05-01-1999,21:00,11,R,ugm-3,34,R,ugm-3,52,R,ugm-3,20,R,ugm-3
05-01-1999,22:00,8,R,ugm-3,27,R,ugm-3,38,R,ugm-3,30,R,ugm-3
05-01-1999,23:00,4,R,ugm-3,21,R,ugm-3,27,R,ugm-3,38,R,ugm-3
05-01-1999,24:00,3,R,ugm-3,19,R,ugm-3,23,R,ugm-3,40,R,ugm-3
06-01-1999,01:00,3,R,ugm-3,15,R,ugm-3,19,R,ugm-3,44,R,ugm-3
06-01-1999,02:00,1,R,ugm-3,11,R,ugm-3,13,R,ugm-3,50,R,ugm-3
06-01-1999,03:00,1,R,ugm-3,8,R,ugm-3,10,R,ugm-3,52,R,ugm-3
06-01-1999,04:00,5,R,ugm-3,11,R,ugm-3,19,R,ugm-3,52,R,ugm-3
06-01-1999,05:00,6,R,ugm-3,15,R,ugm-3,25,R,ugm-3,48,R,ugm-3
06-01-1999,06:00,8,R,ugm-3,19,R,ugm-3,31,R,ugm-3,42,R,ugm-3
06-01-1999,07:00,11,R,ugm-3,31,R,ugm-3,48,R,ugm-3,34,R,ugm-3
06-01-1999,08:00,23,R,ugm-3,42,R,ugm-3,76,R,ugm-3,26,R,ugm-3
06-01-1999,09:00,24,R,ugm-3,42,R,ugm-3,78,R,ugm-3,24,R,ugm-3
06-01-1999,10:00,21,R,ugm-3,42,R,ugm-3,74,R,ugm-3,22,R,ugm-3
06-01-1999,11:00,16,R,ugm-3,36,R,ugm-3,61,R,ugm-3,32,R,ugm-3
06-01-1999,12:00,,,,,,,,,,,,
06-01-1999,13:00,,,,,,,,,,,,
06-01-1999,14:00,18,R,ugm-3,32,R,ugm-3,59,R,ugm-3,26,R,ugm-3
06-01-1999,15:00,19,R,ugm-3,36,R,ugm-3,65,R,ugm-3,26,R,ugm-3
06-01-1999,16:00,19,R,ugm-3,40,R,ugm-3,69,R,ugm-3,20,R,ugm-3
06-01-1999,17:00,18,R,ugm-3,40,R,ugm-3,67,R,ugm-3,20,R,ugm-3
06-01-1999,18:00,20,R,ugm-3,44,R,ugm-3,74,R,ugm-3,18,R,ugm-3
06-01-1999,19:00,18,R,ugm-3,40,R,ugm-3,67,R,ugm-3,20,R,ugm-3
06-01-1999,20:00,11,R,ugm-3,31,R,ugm-3,48,R,ugm-3,32,R,ugm-3
06-01-1999,21:00,8,R,ugm-3,23,R,ugm-3,34,R,ugm-3,38,R,ugm-3
06-01-1999,22:00,5,R,ugm-3,31,R,ugm-3,38,R,ugm-3,30,R,ugm-3
06-01-1999,23:00,5,R,ugm-3,42,R,ugm-3,50,R,ugm-3,14,R,ugm-3
06-01-1999,24:00,4,R,ugm-3,36,R,ugm-3,42,R,ugm-3,22,R,ugm-3
07-01-1999,01:00,5,R,ugm-3,27,R,ugm-3,34,R,ugm-3,44,R,ugm-3
07-01-1999,02:00,3,R,ugm-3,25,R,ugm-3,29,R,ugm-3,40,R,ugm-3
07-01-1999,03:00,5,R,ugm-3,29,R,ugm-3,36,R,ugm-3,28,R,ugm-3
07-01-1999,04:00,3,R,ugm-3,17,R,ugm-3,21,R,ugm-3,44,R,ugm-3
07-01-1999,05:00,3,R,ugm-3,11,R,ugm-3,15,R,ugm-3,58,R,ugm-3
07-01-1999,06:00,4,R,ugm-3,17,R,ugm-3,23,R,ugm-3,54,R,ugm-3
07-01-1999,07:00,10,R,ugm-3,31,R,ugm-3,46,R,ugm-3,40,R,ugm-3
07-01-1999,08:00,23,R,ugm-3,50,R,ugm-3,84,R,ugm-3,26,R,ugm-3
07-01-1999,09:00,39,R,ugm-3,67,R,ugm-3,126,R,ugm-3,10,R,ugm-3
07-01-1999,10:00,36,R,ugm-3,61,R,ugm-3,117,R,ugm-3,16,R,ugm-3
07-01-1999,11:00,20,R,ugm-3,46,R,ugm-3,76,R,ugm-3,30,R,ugm-3
07-01-1999,12:00,19,R,ugm-3,42,R,ugm-3,71,R,ugm-3,36,R,ugm-3
07-01-1999,13:00,23,R,ugm-3,44,R,ugm-3,78,R,ugm-3,34,R,ugm-3
07-01-1999,14:00,16,R,ugm-3,40,R,ugm-3,65,R,ugm-3,38,R,ugm-3
07-01-1999,15:00,20,R,ugm-3,52,R,ugm-3,82,R,ugm-3,30,R,ugm-3
07-01-1999,16:00,19,R,ugm-3,50,R,ugm-3,78,R,ugm-3,36,R,ugm-3
07-01-1999,17:00,16,R,ugm-3,48,R,ugm-3,73,R,ugm-3,38,R,ugm-3
07-01-1999,18:00,11,R,ugm-3,32,R,ugm-3,50,R,ugm-3,52,R,ugm-3
07-01-1999,19:00,10,R,ugm-3,34,R,ugm-3,50,R,ugm-3,50,R,ugm-3
07-01-1999,20:00,9,R,ugm-3,34,R,ugm-3,48,R,ugm-3,48,R,ugm-3
07-01-1999,21:00,6,R,ugm-3,31,R,ugm-3,40,R,ugm-3,50,R,ugm-3
07-01-1999,22:00,5,R,ugm-3,31,R,ugm-3,38,R,ugm-3,48,R,ugm-3
07-01-1999,23:00,3,R,ugm-3,23,R,ugm-3,27,R,ugm-3,54,R,ugm-3
07-01-1999,24:00,5,R,ugm-3,21,R,ugm-3,29,R,ugm-3,56,R,ugm-3
08-01-1999,01:00,1,R,ugm-3,13,R,ugm-3,15,R,ugm-3,62,R,ugm-3
08-01-1999,02:00,3,R,ugm-3,13,R,ugm-3,17,R,ugm-3,58,R,ugm-3
08-01-1999,03:00,3,R,ugm-3,11,R,ugm-3,15,R,ugm-3,58,R,ugm-3
08-01-1999,04:00,3,R,ugm-3,11,R,ugm-3,15,R,ugm-3,58,R,ugm-3
08-01-1999,05:00,3,R,ugm-3,13,R,ugm-3,17,R,ugm-3,54,R,ugm-3
08-01-1999,06:00,4,R,ugm-3,13,R,ugm-3,19,R,ugm-3,54,R,ugm-3
08-01-1999,07:00,9,R,ugm-3,23,R,ugm-3,36,R,ugm-3,44,R,ugm-3
08-01-1999,08:00,20,R,ugm-3,44,R,ugm-3,74,R,ugm-3,26,R,ugm-3
08-01-1999,09:00,28,R,ugm-3,53,R,ugm-3,96,R,ugm-3,14,R,ugm-3
08-01-1999,10:00,20,R,ugm-3,42,R,ugm-3,73,R,ugm-3,28,R,ugm-3
08-01-1999,11:00,14,R,ugm-3,31,R,ugm-3,52,R,ugm-3,40,R,ugm-3
08-01-1999,12:00,15,R,ugm-3,32,R,ugm-3,55,R,ugm-3,42,R,ugm-3
08-01-1999,13:00,15,R,ugm-3,36,R,ugm-3,59,R,ugm-3,44,R,ugm-3
08-01-1999,14:00,21,R,ugm-3,55,R,ugm-3,88,R,ugm-3,20,R,ugm-3
08-01-1999,15:00,28,R,ugm-3,65,R,ugm-3,107,R,ugm-3,4,R,ugm-3
08-01-1999,16:00,65,R,ugm-3,76,R,ugm-3,176,R,ugm-3,0,R,ugm-3
08-01-1999,17:00,68,R,ugm-3,84,R,ugm-3,187,R,ugm-3,0,R,ugm-3
08-01-1999,18:00,26,R,ugm-3,74,R,ugm-3,115,R,ugm-3,8,R,ugm-3
08-01-1999,19:00,5,R,ugm-3,52,R,ugm-3,59,R,ugm-3,30,R,ugm-3
08-01-1999,20:00,10,R,ugm-3,73,R,ugm-3,88,R,ugm-3,6,R,ugm-3
08-01-1999,21:00,41,R,ugm-3,71,R,ugm-3,134,R,ugm-3,0,R,ugm-3
08-01-1999,22:00,26,R,ugm-3,61,R,ugm-3,101,R,ugm-3,0,R,ugm-3
08-01-1999,23:00,13,R,ugm-3,57,R,ugm-3,76,R,ugm-3,2,R,ugm-3
08-01-1999,24:00,19,R,ugm-3,57,R,ugm-3,86,R,ugm-3,0,R,ugm-3
09-01-1999,01:00,8,R,ugm-3,52,R,ugm-3,63,R,ugm-3,10,R,ugm-3
09-01-1999,02:00,3,R,ugm-3,38,R,ugm-3,42,R,ugm-3,22,R,ugm-3
09-01-1999,03:00,3,R,ugm-3,32,R,ugm-3,36,R,ugm-3,28,R,ugm-3
09-01-1999,04:00,4,R,ugm-3,29,R,ugm-3,34,R,ugm-3,30,R,ugm-3
09-01-1999,05:00,3,R,ugm-3,25,R,ugm-3,29,R,ugm-3,32,R,ugm-3
09-01-1999,06:00,6,R,ugm-3,38,R,ugm-3,48,R,ugm-3,18,R,ugm-3
09-01-1999,07:00,16,R,ugm-3,53,R,ugm-3,78,R,ugm-3,4,R,ugm-3
09-01-1999,08:00,45,R,ugm-3,65,R,ugm-3,134,R,ugm-3,0,R,ugm-3
09-01-1999,09:00,43,R,ugm-3,63,R,ugm-3,128,R,ugm-3,2,R,ugm-3
09-01-1999,10:00,25,R,ugm-3,57,R,ugm-3,96,R,ugm-3,6,R,ugm-3
09-01-1999,11:00,23,R,ugm-3,53,R,ugm-3,88,R,ugm-3,14,R,ugm-3
09-01-1999,12:00,20,R,ugm-3,53,R,ugm-3,84,R,ugm-3,16,R,ugm-3
09-01-1999,13:00,16,R,ugm-3,53,R,ugm-3,78,R,ugm-3,18,R,ugm-3
09-01-1999,14:00,14,R,ugm-3,52,R,ugm-3,73,R,ugm-3,20,R,ugm-3
09-01-1999,15:00,13,R,ugm-3,52,R,ugm-3,71,R,ugm-3,20,R,ugm-3
09-01-1999,16:00,6,R,ugm-3,53,R,ugm-3,63,R,ugm-3,16,R,ugm-3
09-01-1999,17:00,16,R,ugm-3,63,R,ugm-3,88,R,ugm-3,8,R,ugm-3
09-01-1999,18:00,5,R,ugm-3,52,R,ugm-3,59,R,ugm-3,16,R,ugm-3
09-01-1999,19:00,11,R,ugm-3,67,R,ugm-3,84,R,ugm-3,4,R,ugm-3
09-01-1999,20:00,16,R,ugm-3,65,R,ugm-3,90,R,ugm-3,2,R,ugm-3
09-01-1999,21:00,20,R,ugm-3,65,R,ugm-3,96,R,ugm-3,2,R,ugm-3
09-01-1999,22:00,43,R,ugm-3,69,R,ugm-3,134,R,ugm-3,0,R,ugm-3
09-01-1999,23:00,58,R,ugm-3,63,R,ugm-3,151,R,ugm-3,0,R,ugm-3
09-01-1999,24:00,144,R,ugm-3,59,R,ugm-3,279,R,ugm-3,0,R,ugm-3
10-01-1999,01:00,101,R,ugm-3,61,R,ugm-3,216,R,ugm-3,0,R,ugm-3
10-01-1999,02:00,59,R,ugm-3,53,R,ugm-3,143,R,ugm-3,0,R,ugm-3
10-01-1999,03:00,48,R,ugm-3,46,R,ugm-3,118,R,ugm-3,0,R,ugm-3
10-01-1999,04:00,33,R,ugm-3,46,R,ugm-3,96,R,ugm-3,0,R,ugm-3
10-01-1999,05:00,4,R,ugm-3,38,R,ugm-3,44,R,ugm-3,12,R,ugm-3
10-01-1999,06:00,5,R,ugm-3,34,R,ugm-3,42,R,ugm-3,20,R,ugm-3
10-01-1999,07:00,5,R,ugm-3,36,R,ugm-3,44,R,ugm-3,16,R,ugm-3
10-01-1999,08:00,4,R,ugm-3,44,R,ugm-3,50,R,ugm-3,10,R,ugm-3
10-01-1999,09:00,8,R,ugm-3,50,R,ugm-3,61,R,ugm-3,6,R,ugm-3
10-01-1999,10:00,3,R,ugm-3,32,R,ugm-3,36,R,ugm-3,30,R,ugm-3
10-01-1999,11:00,5,R,ugm-3,31,R,ugm-3,38,R,ugm-3,34,R,ugm-3
10-01-1999,12:00,6,R,ugm-3,34,R,ugm-3,44,R,ugm-3,36,R,ugm-3
10-01-1999,13:00,13,R,ugm-3,52,R,ugm-3,71,R,ugm-3,22,R,ugm-3
10-01-1999,14:00,11,R,ugm-3,52,R,ugm-3,69,R,ugm-3,20,R,ugm-3
10-01-1999,15:00,9,R,ugm-3,44,R,ugm-3,57,R,ugm-3,22,R,ugm-3
10-01-1999,16:00,9,R,ugm-3,52,R,ugm-3,65,R,ugm-3,16,R,ugm-3
10-01-1999,17:00,10,R,ugm-3,63,R,ugm-3,78,R,ugm-3,6,R,ugm-3
10-01-1999,18:00,9,R,ugm-3,63,R,ugm-3,76,R,ugm-3,6,R,ugm-3
10-01-1999,19:00,10,R,ugm-3,63,R,ugm-3,78,R,ugm-3,6,R,ugm-3
10-01-1999,20:00,6,R,ugm-3,59,R,ugm-3,69,R,ugm-3,8,R,ugm-3
10-01-1999,21:00,46,R,ugm-3,67,R,ugm-3,138,R,ugm-3,0,R,ugm-3
10-01-1999,22:00,5,R,ugm-3,57,R,ugm-3,65,R,ugm-3,12,R,ugm-3
10-01-1999,23:00,1,R,ugm-3,46,R,ugm-3,48,R,ugm-3,22,R,ugm-3
10-01-1999,24:00,1,R,ugm-3,36,R,ugm-3,38,R,ugm-3,34,R,ugm-3
11-01-1999,01:00,0,R,ugm-3,36,R,ugm-3,36,R,ugm-3,32,R,ugm-3
11-01-1999,02:00,0,R,ugm-3,32,R,ugm-3,32,R,ugm-3,36,R,ugm-3
11-01-1999,03:00,0,R,ugm-3,31,R,ugm-3,31,R,ugm-3,34,R,ugm-3
11-01-1999,04:00,0,R,ugm-3,23,R,ugm-3,23,R,ugm-3,42,R,ugm-3
11-01-1999,05:00,0,R,ugm-3,27,R,ugm-3,27,R,ugm-3,38,R,ugm-3
11-01-1999,06:00,1,R,ugm-3,34,R,ugm-3,36,R,ugm-3,30,R,ugm-3
11-01-1999,07:00,1,R,ugm-3,36,R,ugm-3,38,R,ugm-3,32,R,ugm-3
11-01-1999,08:00,9,R,ugm-3,61,R,ugm-3,74,R,ugm-3,8,R,ugm-3
11-01-1999,09:00,39,R,ugm-3,69,R,ugm-3,128,R,ugm-3,0,R,ugm-3
11-01-1999,10:00,46,R,ugm-3,73,R,ugm-3,143,R,ugm-3,2,R,ugm-3
11-01-1999,11:00,33,R,ugm-3,67,R,ugm-3,117,R,ugm-3,6,R,ugm-3
11-01-1999,12:00,20,R,ugm-3,63,R,ugm-3,94,R,ugm-3,10,R,ugm-3
11-01-1999,13:00,29,R,ugm-3,65,R,ugm-3,109,R,ugm-3,8,R,ugm-3
11-01-1999,14:00,33,R,ugm-3,67,R,ugm-3,117,R,ugm-3,6,R,ugm-3
11-01-1999,15:00,33,R,ugm-3,67,R,ugm-3,117,R,ugm-3,8,R,ugm-3
11-01-1999,16:00,28,R,ugm-3,67,R,ugm-3,109,R,ugm-3,8,R,ugm-3
11-01-1999,17:00,34,R,ugm-3,73,R,ugm-3,124,R,ugm-3,4,R,ugm-3
11-01-1999,18:00,98,R,ugm-3,84,R,ugm-3,233,R,ugm-3,0,R,ugm-3
11-01-1999,19:00,153,R,ugm-3,86,R,ugm-3,319,R,ugm-3,0,R,ugm-3
11-01-1999,20:00,171,R,ugm-3,86,R,ugm-3,348,R,ugm-3,0,R,ugm-3
11-01-1999,21:00,249,R,ugm-3,84,R,ugm-3,464,R,ugm-3,0,R,ugm-3
11-01-1999,22:00,259,R,ugm-3,78,R,ugm-3,474,R,ugm-3,0,R,ugm-3
11-01-1999,23:00,268,R,ugm-3,73,R,ugm-3,481,R,ugm-3,0,R,ugm-3
11-01-1999,24:00,261,R,ugm-3,63,R,ugm-3,462,R,ugm-3,0,R,ugm-3
12-01-1999,01:00,183,R,ugm-3,59,R,ugm-3,338,R,ugm-3,0,R,ugm-3
12-01-1999,02:00,129,R,ugm-3,55,R,ugm-3,252,R,ugm-3,0,R,ugm-3
12-01-1999,03:00,114,R,ugm-3,55,R,ugm-3,229,R,ugm-3,0,R,ugm-3
12-01-1999,04:00,79,R,ugm-3,48,R,ugm-3,168,R,ugm-3,0,R,ugm-3
12-01-1999,05:00,20,R,ugm-3,46,R,ugm-3,76,R,ugm-3,0,R,ugm-3
12-01-1999,06:00,16,R,ugm-3,52,R,ugm-3,76,R,ugm-3,2,R,ugm-3
12-01-1999,07:00,26,R,ugm-3,53,R,ugm-3,94,R,ugm-3,4,R,ugm-3
12-01-1999,08:00,63,R,ugm-3,63,R,ugm-3,159,R,ugm-3,0,R,ugm-3
12-01-1999,09:00,44,R,ugm-3,65,R,ugm-3,132,R,ugm-3,4,R,ugm-3
12-01-1999,10:00,25,R,ugm-3,55,R,ugm-3,94,R,ugm-3,18,R,ugm-3
12-01-1999,11:00,16,R,ugm-3,40,R,ugm-3,65,R,ugm-3,38,R,ugm-3
12-01-1999,12:00,11,R,ugm-3,27,R,ugm-3,44,R,ugm-3,54,R,ugm-3
12-01-1999,13:00,11,R,ugm-3,25,R,ugm-3,42,R,ugm-3,56,R,ugm-3
12-01-1999,14:00,14,R,ugm-3,27,R,ugm-3,48,R,ugm-3,54,R,ugm-3
12-01-1999,15:00,13,R,ugm-3,31,R,ugm-3,50,R,ugm-3,46,R,ugm-3
12-01-1999,16:00,16,R,ugm-3,52,R,ugm-3,76,R,ugm-3,24,R,ugm-3
12-01-1999,17:00,18,R,ugm-3,73,R,ugm-3,99,R,ugm-3,6,R,ugm-3
12-01-1999,18:00,25,R,ugm-3,74,R,ugm-3,113,R,ugm-3,4,R,ugm-3
12-01-1999,19:00,21,R,ugm-3,71,R,ugm-3,103,R,ugm-3,6,R,ugm-3
12-01-1999,20:00,18,R,ugm-3,65,R,ugm-3,92,R,ugm-3,12,R,ugm-3
12-01-1999,21:00,13,R,ugm-3,55,R,ugm-3,74,R,ugm-3,20,R,ugm-3
12-01-1999,22:00,10,R,ugm-3,50,R,ugm-3,65,R,ugm-3,26,R,ugm-3
12-01-1999,23:00,6,R,ugm-3,36,R,ugm-3,46,R,ugm-3,40,R,ugm-3
12-01-1999,24:00,4,R,ugm-3,34,R,ugm-3,40,R,ugm-3,40,R,ugm-3
13-01-1999,01:00,3,R,ugm-3,23,R,ugm-3,27,R,ugm-3,48,R,ugm-3
13-01-1999,02:00,3,R,ugm-3,15,R,ugm-3,19,R,ugm-3,58,R,ugm-3
13-01-1999,03:00,3,R,ugm-3,13,R,ugm-3,17,R,ugm-3,60,R,ugm-3
13-01-1999,04:00,1,R,ugm-3,13,R,ugm-3,15,R,ugm-3,60,R,ugm-3
13-01-1999,05:00,5,R,ugm-3,21,R,ugm-3,29,R,ugm-3,50,R,ugm-3
13-01-1999,06:00,5,R,ugm-3,29,R,ugm-3,36,R,ugm-3,46,R,ugm-3
13-01-1999,07:00,15,R,ugm-3,52,R,ugm-3,74,R,ugm-3,24,R,ugm-3
13-01-1999,08:00,36,R,ugm-3,67,R,ugm-3,122,R,ugm-3,8,R,ugm-3
13-01-1999,09:00,41,R,ugm-3,71,R,ugm-3,134,R,ugm-3,6,R,ugm-3
13-01-1999,10:00,36,R,ugm-3,65,R,ugm-3,120,R,ugm-3,12,R,ugm-3
13-01-1999,11:00,30,R,ugm-3,61,R,ugm-3,107,R,ugm-3,12,R,ugm-3
13-01-1999,12:00,,,,,,,,,,,,
13-01-1999,13:00,,,,,,,,,,,,
13-01-1999,14:00,19,R,ugm-3,46,R,ugm-3,74,R,ugm-3,34,R,ugm-3
13-01-1999,15:00,16,R,ugm-3,40,R,ugm-3,65,R,ugm-3,38,R,ugm-3
13-01-1999,16:00,18,R,ugm-3,42,R,ugm-3,69,R,ugm-3,38,R,ugm-3
13-01-1999,17:00,11,R,ugm-3,36,R,ugm-3,53,R,ugm-3,46,R,ugm-3
13-01-1999,18:00,13,R,ugm-3,36,R,ugm-3,55,R,ugm-3,44,R,ugm-3
13-01-1999,19:00,11,R,ugm-3,38,R,ugm-3,55,R,ugm-3,38,R,ugm-3
13-01-1999,20:00,14,R,ugm-3,46,R,ugm-3,67,R,ugm-3,28,R,ugm-3
13-01-1999,21:00,11,R,ugm-3,46,R,ugm-3,63,R,ugm-3,26,R,ugm-3
13-01-1999,22:00,9,R,ugm-3,38,R,ugm-3,52,R,ugm-3,34,R,ugm-3
13-01-1999,23:00,3,R,ugm-3,21,R,ugm-3,25,R,ugm-3,56,R,ugm-3
13-01-1999,24:00,1,R,ugm-3,23,R,ugm-3,25,R,ugm-3,58,R,ugm-3
14-01-1999,01:00,1,R,ugm-3,17,R,ugm-3,19,R,ugm-3,62,R,ugm-3
14-01-1999,02:00,0,R,ugm-3,13,R,ugm-3,13,R,ugm-3,62,R,ugm-3
14-01-1999,03:00,0,R,ugm-3,10,R,ugm-3,10,R,ugm-3,68,R,ugm-3
14-01-1999,04:00,3,R,ugm-3,11,R,ugm-3,15,R,ugm-3,66,R,ugm-3
14-01-1999,05:00,1,R,ugm-3,11,R,ugm-3,13,R,ugm-3,64,R,ugm-3
14-01-1999,06:00,3,R,ugm-3,15,R,ugm-3,19,R,ugm-3,60,R,ugm-3
14-01-1999,07:00,6,R,ugm-3,31,R,ugm-3,40,R,ugm-3,48,R,ugm-3
14-01-1999,08:00,24,R,ugm-3,59,R,ugm-3,96,R,ugm-3,18,R,ugm-3
14-01-1999,09:00,30,R,ugm-3,63,R,ugm-3,109,R,ugm-3,14,R,ugm-3
14-01-1999,10:00,30,R,ugm-3,61,R,ugm-3,107,R,ugm-3,16,R,ugm-3
14-01-1999,11:00,20,R,ugm-3,46,R,ugm-3,76,R,ugm-3,30,R,ugm-3
14-01-1999,12:00,19,R,ugm-3,42,R,ugm-3,71,R,ugm-3,36,R,ugm-3
14-01-1999,13:00,15,R,ugm-3,34,R,ugm-3,57,R,ugm-3,42,R,ugm-3
14-01-1999,14:00,11,R,ugm-3,29,R,ugm-3,46,R,ugm-3,46,R,ugm-3
14-01-1999,15:00,11,R,ugm-3,27,R,ugm-3,44,R,ugm-3,48,R,ugm-3
14-01-1999,16:00,10,R,ugm-3,31,R,ugm-3,46,R,ugm-3,44,R,ugm-3
14-01-1999,17:00,11,R,ugm-3,34,R,ugm-3,52,R,ugm-3,42,R,ugm-3
14-01-1999,18:00,10,R,ugm-3,31,R,ugm-3,46,R,ugm-3,46,R,ugm-3
14-01-1999,19:00,9,R,ugm-3,27,R,ugm-3,40,R,ugm-3,54,R,ugm-3
14-01-1999,20:00,6,R,ugm-3,21,R,ugm-3,31,R,ugm-3,56,R,ugm-3
14-01-1999,21:00,5,R,ugm-3,19,R,ugm-3,27,R,ugm-3,58,R,ugm-3
14-01-1999,22:00,4,R,ugm-3,17,R,ugm-3,23,R,ugm-3,58,R,ugm-3
14-01-1999,23:00,3,R,ugm-3,15,R,ugm-3,19,R,ugm-3,60,R,ugm-3
14-01-1999,24:00,1,R,ugm-3,8,R,ugm-3,10,R,ugm-3,66,R,ugm-3
15-01-1999,01:00,1,R,ugm-3,8,R,ugm-3,10,R,ugm-3,66,R,ugm-3
15-01-1999,02:00,0,R,ugm-3,6,R,ugm-3,6,R,ugm-3,68,R,ugm-3
15-01-1999,03:00,1,R,ugm-3,4,R,ugm-3,6,R,ugm-3,70,R,ugm-3
15-01-1999,04:00,0,R,ugm-3,2,R,ugm-3,2,R,ugm-3,70,R,ugm-3
15-01-1999,05:00,1,R,ugm-3,4,R,ugm-3,6,R,ugm-3,68,R,ugm-3
15-01-1999,06:00,1,R,ugm-3,8,R,ugm-3,10,R,ugm-3,68,R,ugm-3
15-01-1999,07:00,4,R,ugm-3,19,R,ugm-3,25,R,ugm-3,60,R,ugm-3
15-01-1999,08:00,10,R,ugm-3,27,R,ugm-3,42,R,ugm-3,54,R,ugm-3
15-01-1999,09:00,8,R,ugm-3,27,R,ugm-3,38,R,ugm-3,58,R,ugm-3
15-01-1999,10:00,10,R,ugm-3,25,R,ugm-3,40,R,ugm-3,58,R,ugm-3
15-01-1999,11:00,8,R,ugm-3,19,R,ugm-3,31,R,ugm-3,62,R,ugm-3
15-01-1999,12:00,6,R,ugm-3,15,R,ugm-3,25,R,ugm-3,68,R,ugm-3
15-01-1999,13:00,6,R,ugm-3,17,R,ugm-3,27,R,ugm-3,66,R,ugm-3
15-01-1999,14:00,10,R,ugm-3,23,R,ugm-3,38,R,ugm-3,60,R,ugm-3
15-01-1999,15:00,9,R,ugm-3,21,R,ugm-3,34,R,ugm-3,62,R,ugm-3
15-01-1999,16:00,9,R,ugm-3,23,R,ugm-3,36,R,ugm-3,62,R,ugm-3
15-01-1999,17:00,10,R,ugm-3,25,R,ugm-3,40,R,ugm-3,58,R,ugm-3
15-01-1999,18:00,9,R,ugm-3,21,R,ugm-3,34,R,ugm-3,62,R,ugm-3
15-01-1999,19:00,8,R,ugm-3,21,R,ugm-3,32,R,ugm-3,62,R,ugm-3
15-01-1999,20:00,8,R,ugm-3,19,R,ugm-3,31,R,ugm-3,64,R,ugm-3
15-01-1999,21:00,6,R,ugm-3,17,R,ugm-3,27,R,ugm-3,66,R,ugm-3
15-01-1999,22:00,3,R,ugm-3,11,R,ugm-3,15,R,ugm-3,72,R,ugm-3
15-01-1999,23:00,1,R,ugm-3,8,R,ugm-3,10,R,ugm-3,76,R,ugm-3
15-01-1999,24:00,1,R,ugm-3,6,R,ugm-3,8,R,ugm-3,76,R,ugm-3
16-01-1999,01:00,1,R,ugm-3,4,R,ugm-3,6,R,ugm-3,76,R,ugm-3
16-01-1999,02:00,1,R,ugm-3,4,R,ugm-3,6,R,ugm-3,78,R,ugm-3
16-01-1999,03:00,1,R,ugm-3,4,R,ugm-3,6,R,ugm-3,78,R,ugm-3
16-01-1999,04:00,0,R,ugm-3,2,R,ugm-3,2,R,ugm-3,78,R,ugm-3
16-01-1999,05:00,1,R,ugm-3,2,R,ugm-3,4,R,ugm-3,78,R,ugm-3
16-01-1999,06:00,1,R,ugm-3,6,R,ugm-3,8,R,ugm-3,82,R,ugm-3
16-01-1999,07:00,1,R,ugm-3,15,R,ugm-3,17,R,ugm-3,74,R,ugm-3
16-01-1999,08:00,3,R,ugm-3,19,R,ugm-3,23,R,ugm-3,68,R,ugm-3
16-01-1999,09:00,6,R,ugm-3,32,R,ugm-3,42,R,ugm-3,54,R,ugm-3
16-01-1999,10:00,10,R,ugm-3,40,R,ugm-3,55,R,ugm-3,44,R,ugm-3
16-01-1999,11:00,11,R,ugm-3,44,R,ugm-3,61,R,ugm-3,40,R,ugm-3
16-01-1999,12:00,13,R,ugm-3,36,R,ugm-3,55,R,ugm-3,48,R,ugm-3
16-01-1999,13:00,10,R,ugm-3,29,R,ugm-3,44,R,ugm-3,58,R,ugm-3
16-01-1999,14:00,16,R,ugm-3,44,R,ugm-3,69,R,ugm-3,40,R,ugm-3
16-01-1999,15:00,13,R,ugm-3,38,R,ugm-3,57,R,ugm-3,48,R,ugm-3
16-01-1999,16:00,19,R,ugm-3,48,R,ugm-3,76,R,ugm-3,36,R,ugm-3
16-01-1999,17:00,29,R,ugm-3,69,R,ugm-3,113,R,ugm-3,10,R,ugm-3
16-01-1999,18:00,28,R,ugm-3,63,R,ugm-3,105,R,ugm-3,16,R,ugm-3
16-01-1999,19:00,14,R,ugm-3,46,R,ugm-3,67,R,ugm-3,32,R,ugm-3
16-01-1999,20:00,10,R,ugm-3,38,R,ugm-3,53,R,ugm-3,40,R,ugm-3
16-01-1999,21:00,8,R,ugm-3,31,R,ugm-3,42,R,ugm-3,50,R,ugm-3
16-01-1999,22:00,8,R,ugm-3,29,R,ugm-3,40,R,ugm-3,48,R,ugm-3
16-01-1999,23:00,4,R,ugm-3,21,R,ugm-3,27,R,ugm-3,50,R,ugm-3
16-01-1999,24:00,4,R,ugm-3,21,R,ugm-3,27,R,ugm-3,50,R,ugm-3
17-01-1999,01:00,3,R,ugm-3,19,R,ugm-3,23,R,ugm-3,50,R,ugm-3
17-01-1999,02:00,1,R,ugm-3,15,R,ugm-3,17,R,ugm-3,52,R,ugm-3
17-01-1999,03:00,5,R,ugm-3,15,R,ugm-3,23,R,ugm-3,56,R,ugm-3
17-01-1999,04:00,1,R,ugm-3,11,R,ugm-3,13,R,ugm-3,56,R,ugm-3
17-01-1999,05:00,3,R,ugm-3,8,R,ugm-3,11,R,ugm-3,74,R,ugm-3
17-01-1999,06:00,8,R,ugm-3,11,R,ugm-3,23,R,ugm-3,72,R,ugm-3
17-01-1999,07:00,6,R,ugm-3,19,R,ugm-3,29,R,ugm-3,64,R,ugm-3
17-01-1999,08:00,8,R,ugm-3,29,R,ugm-3,40,R,ugm-3,56,R,ugm-3
17-01-1999,09:00,6,R,ugm-3,31,R,ugm-3,40,R,ugm-3,50,R,ugm-3
17-01-1999,10:00,11,R,ugm-3,34,R,ugm-3,52,R,ugm-3,42,R,ugm-3
17-01-1999,11:00,19,R,ugm-3,46,R,ugm-3,74,R,ugm-3,34,R,ugm-3